#timestamp,LO_Frequency,Hit,StdDev 
1696755615.7,286047005.9,N
1696755635.5,286047004.7,N
1696755655.4,286047008.7,Y
1696755675.2,286047007.2,P
1696755695.1,286047006.2,N
1696755696.0,286047006.2,P
1696755715.8,286047008.2,Y
1696755735.6,286047001.3,P
1696755755.5,286047003.8,N
1696755775.3,286047001.4,N
1696755795.1,286047001.4,N
1696755815.9,286047002.1,N
1696755835.7,286047002.3,N
1696755855.6,286046998.8,N
1696755875.4,286046998.0,N
1696755895.2,286046996.3,N
1696755915.1,286046993.4,N
1696755916.0,286046993.4,N
1696755935.8,286046991.7,N
1696755955.7,286046994.8,N
1696755975.5,286046994.5,N
1696755995.3,286046994.2,N
1696756015.2,286046991.7,N
1696756035.9,286046993.6,N
1696756055.7,286046993.3,N
1696756075.6,286046996.1,N
1696756095.4,286046998.0,N
1696756115.2,286046999.0,N
1696756135.1,286047001.0,N
1696756136.0,286047001.0,N
1696756155.8,286047002.4,N
1696756175.7,286047004.4,N
1696756195.5,286047003.6,N
1696756215.3,286047005.3,N
1696756235.2,286047005.4,N
1696756255.0,286047005.0,N
1696756255.9,286047005.0,N
1696756275.8,286047005.0,N
1696756295.6,286047007.5,N
1696756315.4,286047007.1,N
1696756335.3,286047006.8,N
1696756355.1,286047006.7,N
1696756375.8,286047008.7,N
1696756395.7,286047008.2,N
1696756415.5,286047007.7,N
1696756435.4,286047009.3,N
1696756455.2,286047009.4,N
1696756475.0,286047009.4,N
1696756475.9,286047009.4,N
1696756495.8,286047009.6,N
1696756515.6,286047010.4,N
1696756535.4,286047009.3,N
1696756555.3,286047007.8,N
1696756575.1,286047010.4,N
1696756595.9,286047009.8,N
1696756615.7,286047012.1,Y
1696756635.5,286047007.2,P
1696756655.4,286047005.7,P
1696756675.2,286047003.6,P
1696756695.1,286047001.9,N
1696756696.0,286047001.9,N
1696756715.8,286047000.1,N
1696756735.6,286046999.8,N
1696756755.5,286046999.8,N
1696756775.3,286046998.7,N
1696756795.1,286046996.9,N
1696756815.9,286046996.7,N
1696756835.7,286046995.1,N
1696756855.6,286046997.8,N
1696756875.4,286046994.9,N
1696756895.2,286046994.9,N
1696756915.1,286046995.3,N
1696756916.0,286046995.3,N
1696756935.8,286046994.9,N
1696756955.6,286046995.6,N
1696756975.5,286046994.9,N
1696756995.3,286046996.4,N
1696757015.2,286046995.1,N
1696757035.9,286046995.8,N
1696757055.7,286046994.9,N
1696757075.6,286046995.4,N
1696757095.4,286046995.2,N
1696757115.2,286046995.1,N
1696757135.1,286046995.0,N
1696757136.0,286046995.0,N
1696757155.8,286046995.0,N
1696757175.7,286046997.9,N
1696757195.5,286046995.7,N
1696757215.3,286046994.9,N
1696757235.2,286046994.9,N
1696757255.0,286046995.0,N
1696757255.9,286046995.0,Y
1696757275.8,286047000.0,P
1696757295.6,286046999.9,N
1696757315.4,286047000.3,N
1696757335.3,286047000.0,N
1696757355.1,286047000.2,N
1696757375.8,286047000.4,N
1696757395.7,286046999.8,N
1696757415.5,286047002.8,N
1696757435.4,286046999.8,N
1696757455.2,286047002.8,N
1696757475.0,286047002.8,N
1696757475.9,286047002.8,N
1696757495.8,286046999.8,N
1696757515.6,286047002.7,N
1696757535.4,286047000.2,N
1696757555.3,286046999.9,N
1696757575.1,286047000.1,N
1696757595.9,286047002.2,N
1696757615.7,286047002.1,N
1696757635.5,286047002.7,N
1696757655.4,286047002.3,N
1696757675.2,286047001.9,N
1696757695.0,286047002.5,N
1696757695.9,286047002.5,N
1696757715.8,286047002.1,N
1696757735.6,286047001.7,N
1696757755.5,286047001.3,N
1696757775.3,286047004.4,N
1696757795.1,286047001.7,N
1696757815.9,286047004.2,N
1696757835.7,286047003.2,N
1696757855.6,286047003.3,N
1696757875.4,286047005.8,Y
1696757895.2,286047002.2,P
1696757915.1,286047000.1,N
1696757916.0,286047000.1,N
1696757935.8,286047002.3,N
1696757955.7,286047001.5,N
1696757975.5,286047001.8,N
1696757995.3,286047003.9,Y
1696758015.2,286047002.4,P
1696758035.0,286047002.8,P
1696758035.9,286047002.8,P
1696758055.8,286047002.0,Y
1696758075.6,286047001.0,P
1696758095.4,286047001.1,N
1696758115.3,286046998.3,N
1696758135.1,286046998.7,N
1696758155.8,286046996.5,N
1696758175.7,286046998.9,N
1696758195.5,286046998.8,N
1696758215.4,286046996.9,N
1696758235.2,286046998.8,N
1696758255.0,286046999.3,N
1696758255.9,286046999.3,N
1696758275.8,286046999.4,N
1696758295.6,286046999.5,N
1696758315.5,286046999.0,N
1696758335.3,286046996.5,N
1696758355.1,286046996.5,N
1696758375.9,286046999.5,N
1696758395.7,286046999.4,N
1696758415.5,286046999.4,N
1696758435.4,286046999.3,N
1696758455.2,286046999.1,N
1696758475.1,286046999.6,N
1696758476.0,286046999.6,N
1696758495.8,286046997.1,N
1696758515.6,286046997.4,N
1696758535.5,286046996.9,N
1696758555.3,286046996.6,N
1696758575.2,286046999.1,N
1696758595.9,286046999.4,N
1696758615.7,286046999.6,N
1696758635.6,286046996.8,N
1696758655.4,286046999.3,N
1696758675.3,286046999.0,N
1696758695.1,286046999.6,N
1696758696.0,286046999.6,N
1696758715.8,286046998.5,N
1696758735.7,286046998.6,N
1696758755.5,286046999.2,N
1696758775.3,286046999.2,N
1696758795.2,286046998.8,N
1696758815.0,286046999.1,N
1696758815.9,286046999.1,N
1696758835.8,286046998.9,N
1696758855.6,286046997.1,N
1696758875.4,286046997.0,N
1696758895.3,286046996.5,Y
1696758915.1,286046998.6,P
1696758935.9,286046998.7,P
1696758955.7,286047001.1,P
1696758975.5,286046998.5,N
1696758995.4,286047001.0,N
1696759015.2,286046998.4,N
1696759035.0,286046998.2,N
1696759035.9,286046998.2,N
1696759055.8,286046998.4,N
1696759075.6,286046998.7,N
1696759095.5,286046998.9,N
1696759115.3,286046999.1,N
1696759135.1,286046998.6,N
1696759155.9,286046998.4,N
1696759175.7,286046999.1,N
1696759195.5,286046999.4,N
